User: anonymous   Login
Location: Trondheim
(63.4170°N, 10.4170°E)
Time: 14:53:34
(UTC+02:00)
Language:

Iridium 82 - Orbit

View from above orbital plane
View from above orbital plane
View from above satellite
View from above satellite

Ground track
Ground track

The orbit data is extracted from the following two-line orbital elements,

1 25467U 98051A   15245.51246057  .00000198  00000-0  63555-4 0  9990
2 25467  86.3962 295.3322 0001930 100.1761 259.9653 14.34221082892921
Epoch (UTC): 02 September 2015 12:17:56
Eccentricity: 0.0001930
inclination: 86.3962°
perigee height: 776 km
apogee height: 779 km
right ascension of ascending node: 295.3322°
argument of perigee: 100.1761°
revolutions per day: 14.34221082
mean anomaly at epoch: 259.9653°
orbit number at epoch: 89292

The dashed part of the orbit path shows where the satellite is in the earth's shadow,  

DLR